This is the latest recevied weather packets stored in our database for station/object SP8PUB-10. If no packets are shown the sender has not sent any weather packets the latest 10 day(s).
| Time | Temp. | Humidity | Pressure | Rain* | Wind** | Luminosity | Snow |
|---|---|---|---|---|---|---|---|
| 1777660523 | 13.89° C | 60% | 1025 hPa | - | - | - | - |
| 1777659623 | 14.44° C | 58% | 1024.9 hPa | - | - | - | - |
| 1777658723 | 14.44° C | 57% | 1024.7 hPa | - | - | - | - |
| 1777657823 | 15° C | 56% | 1024.6 hPa | - | - | - | - |
| 1777656922 | 15.56° C | 55% | 1024.5 hPa | - | - | - | - |
| 1777656022 | 15.56° C | 54% | 1024.5 hPa | - | - | - | - |
| 1777655122 | 16.11° C | 54% | 1024.2 hPa | - | - | - | - |
| 1777654222 | 16.11° C | 53% | 1024.3 hPa | - | - | - | - |
| 1777653322 | 16.67° C | 52% | 1024.3 hPa | - | - | - | - |
| 1777652422 | 16.67° C | 51% | 1024.4 hPa | - | - | - | - |
| 1777651522 | 16.67° C | 50% | 1024.4 hPa | - | - | - | - |
| 1777650622 | 17.22° C | 49% | 1024.2 hPa | - | - | - | - |
| 1777649721 | 17.22° C | 49% | 1024.5 hPa | - | - | - | - |
| 1777648821 | 17.78° C | 48% | 1024.5 hPa | - | - | - | - |
| 1777647921 | 17.78° C | 48% | 1024.7 hPa | - | - | - | - |
| 1777647021 | 17.78° C | 48% | 1024.8 hPa | - | - | - | - |
| 1777646121 | 17.78° C | 47% | 1024.7 hPa | - | - | - | - |
| 1777645221 | 17.22° C | 48% | 1024.9 hPa | - | - | - | - |
| 1777644321 | 17.22° C | 48% | 1025 hPa | - | - | - | - |
| 1777643421 | 17.22° C | 47% | 1025.1 hPa | - | - | - | - |
| 1777642521 | 17.22° C | 47% | 1025 hPa | - | - | - | - |
| 1777641620 | 17.78° C | 47% | 1025.2 hPa | - | - | - | - |
| 1777640720 | 17.78° C | 47% | 1025.4 hPa | - | - | - | - |
| 1777639820 | 17.78° C | 47% | 1025.5 hPa | - | - | - | - |
| 1777638920 | 18.33° C | 46% | 1025.7 hPa | - | - | - | - |
* Rain since midnight (hover to see other rain measurements)
** Current wind speed in m/s (hover to see current wind gust speed)